QPF
0.13 0.09 0.08 0.12 0.14 0.15 0.13 0.10 0.09 0.09 0.10 0.12 0.15 0.17 0.19 0.22 0.24 0.27 0.28 0.27 0.25 0.21 0.15 0.12 0.14 0.16 0.15 0.13 0.12 0.10 0.12 0.15 0.11 0.06 0.05 0.06 0.07 0.05 0.04 0.03 0.03 0.03 0.02
0.13 0.12 0.13 0.17 0.16 0.13 0.11 0.09 0.09 0.11 0.11 0.11 0.13 0.15 0.17 0.18 0.20 0.23 0.27 0.23 0.20 0.16 0.14 0.13 0.14 0.16 0.20 0.17 0.10 0.07 0.07 0.07 0.07 0.07 0.08 0.09 0.09 0.08 0.06 0.04 0.04 0.03 0.03
0.11 0.12 0.13 0.17 0.17 0.11 0.10 0.09 0.10 0.12 0.12 0.11 0.11 0.12 0.14 0.16 0.16 0.17 0.18 0.14 0.13 0.13 0.12 0.13 0.15 0.17 0.16 0.14 0.11 0.07 0.06 0.06 0.06 0.06 0.08 0.11 0.11 0.09 0.07 0.05 0.06 0.04 0.04
0.07 0.09 0.11 0.15 0.16 0.13 0.10 0.10 0.11 0.11 0.11 0.10 0.10 0.12 0.12 0.14 0.16 0.15 0.15 0.12 0.10 0.12 0.15 0.15 0.19 0.20 0.16 0.13 0.10 0.08 0.07 0.05 0.06 0.07 0.06 0.06 0.06 0.08 0.10 0.09 0.09 0.08 0.08
0.05 0.08 0.11 0.22 0.23 0.14 0.11 0.10 0.10 0.10 0.09 0.09 0.09 0.10 0.11 0.12 0.13 0.12 0.12 0.11 0.09 0.13 0.20 0.21 0.21 0.18 0.14 0.11 0.08 0.08 0.07 0.07 0.06 0.04 0.05 0.07 0.07 0.08 0.09 0.10 0.12 0.11 0.11
0.05 0.08 0.11 0.21 0.17 0.15 0.15 0.14 0.11 0.11 0.10 0.09 0.08 0.08 0.09 0.11 0.11 0.10 0.10 0.09 0.09 0.15 0.23 0.22 0.19 0.16 0.12 0.07 0.07 0.06 0.07 0.06 0.04 0.02 0.03 0.06 0.09 0.09 0.08 0.09 0.10 0.14 0.15
0.04 0.08 0.12 0.18 0.16 0.14 0.15 0.12 0.13 0.12 0.10 0.08 0.08 0.08 0.08 0.10 0.12 0.10 0.10 0.11 0.11 0.20 0.22 0.17 0.13 0.13 0.13 0.11 0.11 0.11 0.10 0.06 0.04 0.03 0.04 0.05 0.06 0.08 0.11 0.11 0.10 0.11 0.12
0.03 0.07 0.09 0.14 0.15 0.13 0.14 0.12 0.11 0.10 0.09 0.08 0.09 0.08 0.09 0.11 0.11 0.09 0.10 0.12 0.19 0.25 0.20 0.15 0.11 0.10 0.12 0.11 0.10 0.10 0.08 0.05 0.02 0.02 0.03 0.04 0.04 0.06 0.09 0.13 0.18 0.22 0.19
0.01 0.03 0.06 0.10 0.12 0.13 0.13 0.12 0.13 0.11 0.10 0.09 0.11 0.10 0.09 0.10 0.10 0.09 0.12 0.17 0.21 0.20 0.17 0.16 0.15 0.13 0.12 0.10 0.09 0.07 0.06 0.04 0.02 0.03 0.02 0.02 0.02 0.04 0.05 0.06 0.08 0.14 0.25
0.02 0.03 0.03 0.04 0.10 0.12 0.11 0.10 0.12 0.11 0.11 0.12 0.13 0.12 0.11 0.11 0.11 0.12 0.17 0.20 0.19 0.15 0.15 0.17 0.17 0.15 0.12 0.11 0.09 0.08 0.07 0.05 0.03 0.03 0.03 0.02 0.02 0.04 0.06 0.06 0.06 0.06 0.07
0.01 0.02 0.02 0.02 0.06 0.09 0.07 0.08 0.09 0.09 0.10 0.14 0.16 0.15 0.15 0.14 0.13 0.16 0.17 0.20 0.24 0.15 0.14 0.17 0.15 0.13 0.12 0.11 0.09 0.07 0.06 0.04 0.04 0.06 0.06 0.04 0.03 0.05 0.06 0.06 0.05 0.05 0.09
0.01 0.00 0.01 0.02 0.04 0.06 0.05 0.04 0.06 0.05 0.05 0.06 0.07 0.06 0.06 0.07 0.09 0.13 0.17 0.25 0.26 0.16 0.13 0.14 0.15 0.12 0.09 0.09 0.08 0.06 0.04 0.03 0.06 0.07 0.06 0.03 0.04 0.05 0.06 0.07 0.06 0.07 0.11
0.01 0.01 0.01 0.02 0.03 0.04 0.04 0.03 0.03 0.03 0.03 0.04 0.04 0.04 0.04 0.04 0.05 0.11 0.23 0.28 0.21 0.14 0.12 0.12 0.12 0.08 0.06 0.08 0.07 0.06 0.05 0.05 0.07 0.06 0.06 0.03 0.04 0.06 0.07 0.06 0.05 0.06 0.10
0.01 0.01 0.01 0.02 0.02 0.03 0.03 0.03 0.03 0.02 0.03 0.03 0.03 0.02 0.03 0.04 0.04 0.07 0.13 0.15 0.12 0.12 0.12 0.10 0.07 0.06 0.06 0.07 0.06 0.06 0.07 0.09 0.13 0.10 0.07 0.04 0.04 0.05 0.06 0.06 0.06 0.06 0.09
0.00 0.01 0.01 0.01 0.01 0.01 0.02 0.03 0.02 0.02 0.02 0.03 0.03 0.03 0.04 0.04 0.04 0.05 0.07 0.07 0.08 0.09 0.09 0.09 0.06 0.05 0.06 0.07 0.06 0.06 0.09 0.14 0.16 0.08 0.03 0.03 0.04 0.04 0.06 0.08 0.08 0.08 0.09
0.01 0.01 0.01 0.01 0.01 0.01 0.02 0.02 0.01 0.02 0.02 0.02 0.02 0.03 0.04 0.06 0.10 0.13 0.12 0.10 0.09 0.09 0.08 0.07 0.04 0.04 0.04 0.04 0.05 0.08 0.13 0.17 0.13 0.03 0.01 0.03 0.03 0.04 0.06 0.09 0.09 0.11 0.10
0.01 0.01 0.01 0.01 0.01 0.01 0.01 0.01 0.01 0.01 0.02 0.02 0.03 0.03 0.04 0.07 0.14 0.15 0.15 0.14 0.12 0.10 0.07 0.05 0.04 0.04 0.04 0.03 0.05 0.05 0.04 0.05 0.04 0.02 0.02 0.02 0.04 0.04 0.07 0.06 0.06 0.08 0.09
0.01 0.01 0.01 0.01 0.00 0.00 0.01 0.02 0.02 0.02 0.02 0.02 0.02 0.04 0.04 0.05 0.06 0.08 0.10 0.09 0.09 0.06 0.06 0.08 0.06 0.05 0.05 0.05 0.05 0.05 0.04 0.03 0.03 0.03 0.03 0.02 0.04 0.04 0.05 0.04 0.04 0.06 0.07
0.01 0.01 0.01 0.01 0.00 0.01 0.01 0.02 0.02 0.03 0.03 0.03 0.03 0.03 0.03 0.03 0.03 0.05 0.06 0.07 0.08 0.07 0.07 0.06 0.06 0.07 0.06 0.06 0.05 0.05 0.04 0.04 0.06 0.03 0.02 0.01 0.02 0.03 0.03 0.03 0.04 0.06 0.07
0.00 0.01 0.01 0.01 0.02 0.01 0.01 0.02 0.02 0.03 0.02 0.02 0.03 0.03 0.03 0.04 0.03 0.05 0.07 0.09 0.10 0.11 0.10 0.09 0.08 0.08 0.06 0.06 0.03 0.04 0.04 0.04 0.05 0.04 0.03 0.02 0.02 0.02 0.02 0.03 0.04 0.04 0.04
0.01 0.01 0.02 0.02 0.02 0.03 0.03 0.02 0.03 0.03 0.03 0.03 0.02 0.02 0.02 0.02 0.03 0.06 0.09 0.10 0.09 0.09 0.09 0.09 0.08 0.08 0.07 0.05 0.06 0.06 0.06 0.04 0.04 0.03 0.04 0.03 0.03 0.02 0.03 0.04 0.04 0.04 0.04
0.02 0.01 0.01 0.02 0.02 0.02 0.03 0.03 0.02 0.03 0.03 0.03 0.02 0.02 0.02 0.03 0.04 0.04 0.06 0.06 0.06 0.08 0.09 0.09 0.08 0.08 0.06 0.05 0.06 0.07 0.07 0.07 0.06 0.05 0.08 0.08 0.05 0.05 0.04 0.04 0.04 0.05 0.06
0.02 0.02 0.01 0.01 0.01 0.02 0.02 0.02 0.02 0.03 0.03 0.03 0.03 0.04 0.03 0.03 0.03 0.04 0.05 0.05 0.05 0.06 0.08 0.07 0.07 0.08 0.07 0.06 0.06 0.07 0.08 0.09 0.08 0.06 0.07 0.08 0.08 0.06 0.05 0.04 0.04 0.04 0.04
0.01 0.01 0.01 0.00 0.00 0.01 0.02 0.01 0.02 0.02 0.03 0.04 0.05 0.03 0.03 0.04 0.03 0.03 0.05 0.05 0.05 0.07 0.08 0.07 0.07 0.08 0.10 0.08 0.07 0.07 0.08 0.08 0.09 0.07 0.05 0.05 0.05 0.06 0.05 0.04 0.03 0.02 0.03
0.01 0.01 0.01 0.00 0.00 0.00 0.01 0.01 0.01 0.01 0.03 0.03 0.03 0.03 0.03 0.02 0.02 0.02 0.04 0.05 0.06 0.06 0.06 0.07 0.09 0.10 0.09 0.09 0.08 0.08 0.07 0.06 0.05 0.05 0.06 0.05 0.04 0.02 0.02 0.02 0.02 0.02 0.02
0.01 0.01 0.02 0.01 0.00 0.00 0.01 0.01 0.01 0.02 0.03 0.03 0.03 0.03 0.03 0.02 0.02 0.02 0.02 0.04 0.05 0.05 0.04 0.05 0.07 0.07 0.06 0.06 0.06 0.06 0.06 0.06 0.06 0.06 0.06 0.07 0.06 0.03 0.01 0.02 0.02 0.02 0.02
MSLP
1009.82 1009.66 1009.64 1009.78 1010.01 1010.30 1010.58 1010.80 1010.95 1011.04 1011.10 1011.18 1011.33 1011.57 1011.92 1012.35 1012.82 1013.29 1013.72 1014.08 1014.38 1014.63 1014.85 1015.08 1015.31 1015.57 1015.83 1016.07 1016.27 1016.43 1016.55 1016.64 1016.75 1016.88 1017.07 1017.31 1017.59 1017.88 1018.16 1018.41 1018.60 1018.75 1018.85
1009.99 1009.88 1009.92 1010.09 1010.35 1010.64 1010.92 1011.15 1011.30 1011.40 1011.48 1011.59 1011.78 1012.05 1012.42 1012.85 1013.31 1013.75 1014.13 1014.45 1014.70 1014.92 1015.13 1015.35 1015.59 1015.86 1016.13 1016.38 1016.58 1016.73 1016.82 1016.89 1016.97 1017.08 1017.26 1017.49 1017.78 1018.09 1018.39 1018.66 1018.87 1019.03 1019.15
1010.15 1010.09 1010.17 1010.37 1010.66 1010.97 1011.26 1011.50 1011.67 1011.80 1011.91 1012.05 1012.26 1012.55 1012.91 1013.32 1013.73 1014.12 1014.44 1014.71 1014.93 1015.13 1015.34 1015.59 1015.87 1016.17 1016.47 1016.73 1016.93 1017.06 1017.14 1017.18 1017.23 1017.32 1017.48 1017.71 1018.00 1018.32 1018.63 1018.92 1019.15 1019.32 1019.45
1010.29 1010.28 1010.40 1010.64 1010.95 1011.29 1011.61 1011.87 1012.08 1012.25 1012.40 1012.58 1012.80 1013.09 1013.43 1013.79 1014.14 1014.46 1014.73 1014.95 1015.15 1015.35 1015.58 1015.86 1016.19 1016.53 1016.86 1017.13 1017.33 1017.44 1017.49 1017.51 1017.53 1017.60 1017.74 1017.97 1018.26 1018.58 1018.91 1019.21 1019.45 1019.64 1019.78
1010.42 1010.45 1010.62 1010.89 1011.24 1011.61 1011.97 1012.28 1012.54 1012.76 1012.95 1013.16 1013.40 1013.67 1013.98 1014.29 1014.58 1014.84 1015.05 1015.24 1015.43 1015.65 1015.91 1016.23 1016.59 1016.96 1017.30 1017.57 1017.74 1017.83 1017.84 1017.82 1017.82 1017.88 1018.02 1018.25 1018.54 1018.88 1019.22 1019.53 1019.78 1019.98 1020.13
1010.55 1010.63 1010.83 1011.15 1011.53 1011.94 1012.34 1012.70 1013.01 1013.28 1013.52 1013.76 1014.01 1014.28 1014.56 1014.83 1015.07 1015.28 1015.46 1015.63 1015.82 1016.06 1016.35 1016.69 1017.07 1017.44 1017.76 1017.99 1018.12 1018.16 1018.13 1018.08 1018.06 1018.11 1018.26 1018.51 1018.83 1019.18 1019.54 1019.86 1020.12 1020.33 1020.48
1010.72 1010.83 1011.06 1011.41 1011.82 1012.27 1012.71 1013.11 1013.46 1013.77 1014.05 1014.32 1014.59 1014.86 1015.13 1015.37 1015.59 1015.78 1015.95 1016.12 1016.32 1016.57 1016.87 1017.22 1017.58 1017.92 1018.18 1018.35 1018.41 1018.39 1018.30 1018.22 1018.19 1018.26 1018.43 1018.71 1019.06 1019.45 1019.82 1020.15 1020.42 1020.63 1020.78
1010.93 1011.07 1011.32 1011.68 1012.12 1012.58 1013.03 1013.46 1013.84 1014.18 1014.49 1014.79 1015.08 1015.36 1015.63 1015.88 1016.10 1016.30 1016.48 1016.67 1016.88 1017.14 1017.44 1017.76 1018.08 1018.34 1018.53 1018.61 1018.58 1018.48 1018.34 1018.24 1018.21 1018.30 1018.51 1018.84 1019.23 1019.65 1020.04 1020.39 1020.65 1020.85 1021.00
1011.19 1011.34 1011.61 1011.98 1012.41 1012.86 1013.31 1013.73 1014.12 1014.47 1014.80 1015.11 1015.43 1015.73 1016.03 1016.31 1016.56 1016.79 1017.00 1017.21 1017.44 1017.70 1017.98 1018.25 1018.50 1018.68 1018.77 1018.74 1018.63 1018.45 1018.27 1018.15 1018.13 1018.26 1018.52 1018.89 1019.33 1019.79 1020.20 1020.55 1020.81 1020.99 1021.12
1011.50 1011.66 1011.93 1012.28 1012.69 1013.12 1013.54 1013.94 1014.30 1014.64 1014.96 1015.29 1015.62 1015.96 1016.30 1016.62 1016.91 1017.19 1017.44 1017.68 1017.93 1018.18 1018.43 1018.66 1018.83 1018.93 1018.91 1018.80 1018.60 1018.37 1018.16 1018.04 1018.04 1018.20 1018.51 1018.92 1019.40 1019.88 1020.31 1020.65 1020.89 1021.05 1021.15
1011.84 1012.01 1012.26 1012.60 1012.98 1013.36 1013.74 1014.08 1014.40 1014.71 1015.02 1015.34 1015.69 1016.06 1016.43 1016.80 1017.15 1017.48 1017.78 1018.05 1018.31 1018.56 1018.78 1018.96 1019.07 1019.09 1019.01 1018.83 1018.58 1018.32 1018.10 1017.98 1018.00 1018.19 1018.53 1018.98 1019.47 1019.96 1020.39 1020.71 1020.93 1021.06 1021.14
1012.17 1012.34 1012.60 1012.91 1013.25 1013.59 1013.91 1014.20 1014.46 1014.72 1015.00 1015.32 1015.67 1016.06 1016.47 1016.89 1017.29 1017.66 1018.00 1018.30 1018.57 1018.81 1019.02 1019.16 1019.24 1019.22 1019.10 1018.89 1018.63 1018.36 1018.15 1018.04 1018.07 1018.28 1018.63 1019.08 1019.57 1020.05 1020.46 1020.76 1020.95 1021.06 1021.11
1012.45 1012.64 1012.90 1013.19 1013.50 1013.80 1014.06 1014.29 1014.51 1014.72 1014.97 1015.26 1015.62 1016.02 1016.46 1016.90 1017.34 1017.74 1018.11 1018.43 1018.71 1018.95 1019.14 1019.28 1019.34 1019.32 1019.21 1019.01 1018.77 1018.53 1018.33 1018.24 1018.28 1018.48 1018.81 1019.23 1019.69 1020.14 1020.51 1020.79 1020.96 1021.04 1021.08
1012.65 1012.87 1013.13 1013.43 1013.72 1013.98 1014.20 1014.39 1014.56 1014.73 1014.95 1015.22 1015.57 1015.97 1016.42 1016.88 1017.33 1017.75 1018.13 1018.45 1018.74 1018.98 1019.17 1019.32 1019.40 1019.41 1019.34 1019.19 1019.00 1018.80 1018.63 1018.54 1018.57 1018.74 1019.02 1019.39 1019.79 1020.19 1020.52 1020.77 1020.92 1021.00 1021.04
1012.76 1013.00 1013.29 1013.58 1013.87 1014.12 1014.32 1014.48 1014.61 1014.76 1014.95 1015.21 1015.53 1015.93 1016.37 1016.83 1017.28 1017.69 1018.06 1018.38 1018.66 1018.90 1019.11 1019.28 1019.40 1019.46 1019.46 1019.38 1019.25 1019.10 1018.96 1018.87 1018.87 1018.98 1019.19 1019.48 1019.81 1020.15 1020.43 1020.66 1020.81 1020.90 1020.95
1012.76 1013.03 1013.33 1013.65 1013.94 1014.19 1014.38 1014.54 1014.66 1014.80 1014.97 1015.20 1015.51 1015.88 1016.30 1016.74 1017.16 1017.55 1017.90 1018.20 1018.47 1018.71 1018.93 1019.13 1019.30 1019.43 1019.50 1019.50 1019.44 1019.34 1019.22 1019.13 1019.08 1019.12 1019.24 1019.44 1019.69 1019.95 1020.20 1020.41 1020.57 1020.69 1020.77
1012.66 1012.96 1013.28 1013.60 1013.91 1014.17 1014.39 1014.55 1014.68 1014.81 1014.97 1015.19 1015.47 1015.81 1016.19 1016.58 1016.97 1017.33 1017.64 1017.92 1018.16 1018.40 1018.63 1018.86 1019.08 1019.27 1019.41 1019.49 1019.49 1019.43 1019.33 1019.22 1019.13 1019.09 1019.12 1019.22 1019.38 1019.58 1019.80 1020.00 1020.18 1020.33 1020.45
1012.48 1012.79 1013.12 1013.46 1013.79 1014.08 1014.31 1014.49 1014.64 1014.78 1014.93 1015.12 1015.37 1015.67 1016.00 1016.35 1016.69 1017.00 1017.28 1017.52 1017.75 1017.98 1018.21 1018.47 1018.72 1018.96 1019.16 1019.30 1019.36 1019.34 1019.25 1019.12 1018.99 1018.88 1018.82 1018.84 1018.92 1019.06 1019.23 1019.43 1019.63 1019.81 1019.98
1012.23 1012.53 1012.87 1013.23 1013.58 1013.89 1014.16 1014.37 1014.54 1014.68 1014.82 1014.99 1015.20 1015.44 1015.72 1016.02 1016.30 1016.57 1016.82 1017.03 1017.25 1017.46 1017.70 1017.97 1018.25 1018.53 1018.77 1018.96 1019.06 1019.07 1019.00 1018.86 1018.69 1018.52 1018.39 1018.33 1018.33 1018.41 1018.55 1018.74 1018.94 1019.15 1019.35
1011.90 1012.20 1012.54 1012.91 1013.29 1013.63 1013.94 1014.18 1014.37 1014.52 1014.65 1014.79 1014.95 1015.14 1015.36 1015.60 1015.84 1016.07 1016.29 1016.49 1016.69 1016.90 1017.14 1017.41 1017.71 1018.01 1018.28 1018.50 1018.64 1018.68 1018.62 1018.49 1018.30 1018.09 1017.91 1017.77 1017.71 1017.73 1017.82 1017.98 1018.17 1018.38 1018.60
1011.48 1011.78 1012.13 1012.52 1012.93 1013.31 1013.66 1013.94 1014.15 1014.31 1014.43 1014.54 1014.65 1014.79 1014.96 1015.14 1015.34 1015.54 1015.74 1015.93 1016.13 1016.35 1016.59 1016.86 1017.16 1017.46 1017.75 1018.00 1018.16 1018.23 1018.20 1018.08 1017.89 1017.66 1017.44 1017.25 1017.13 1017.08 1017.11 1017.20 1017.36 1017.55 1017.76
1010.96 1011.27 1011.64 1012.05 1012.50 1012.93 1013.32 1013.65 1013.89 1014.06 1014.17 1014.25 1014.33 1014.41 1014.53 1014.67 1014.84 1015.03 1015.22 1015.42 1015.62 1015.84 1016.08 1016.35 1016.64 1016.95 1017.24 1017.50 1017.69 1017.79 1017.79 1017.70 1017.53 1017.30 1017.05 1016.82 1016.63 1016.50 1016.45 1016.47 1016.55 1016.69 1016.87
1010.31 1010.64 1011.04 1011.50 1011.99 1012.48 1012.92 1013.30 1013.58 1013.77 1013.89 1013.95 1013.98 1014.03 1014.11 1014.23 1014.38 1014.56 1014.76 1014.97 1015.18 1015.41 1015.65 1015.91 1016.19 1016.49 1016.78 1017.04 1017.25 1017.38 1017.42 1017.37 1017.22 1017.00 1016.74 1016.47 1016.22 1016.01 1015.87 1015.79 1015.79 1015.86 1015.98
1009.56 1009.91 1010.34 1010.84 1011.39 1011.94 1012.44 1012.88 1013.20 1013.42 1013.55 1013.60 1013.63 1013.65 1013.71 1013.81 1013.96 1014.14 1014.36 1014.59 1014.82 1015.05 1015.29 1015.53 1015.79 1016.07 1016.34 1016.60 1016.82 1016.98 1017.06 1017.05 1016.94 1016.74 1016.48 1016.18 1015.87 1015.59 1015.35 1015.18 1015.09 1015.07 1015.13
1008.74 1009.10 1009.56 1010.10 1010.69 1011.30 1011.87 1012.36 1012.73 1012.99 1013.14 1013.20 1013.23 1013.25 1013.30 1013.41 1013.57 1013.77 1014.00 1014.25 1014.49 1014.72 1014.95 1015.17 1015.40 1015.65 1015.90 1016.15 1016.38 1016.56 1016.68 1016.71 1016.64 1016.47 1016.22 1015.90 1015.55 1015.21 1014.89 1014.63 1014.45 1014.36 1014.36
1007.91 1008.27 1008.73 1009.30 1009.92 1010.57 1011.19 1011.72 1012.15 1012.45 1012.63 1012.72 1012.76 1012.80 1012.87 1013.00 1013.18 1013.40 1013.66 1013.92 1014.17 1014.40 1014.61 1014.80 1014.99 1015.19 1015.41 1015.64 1015.87 1016.07 1016.22 1016.29 1016.27 1016.14 1015.91 1015.59 1015.23 1014.84 1014.48 1014.16 1013.92 1013.77 1013.72
Thickness
5795 5796 5791 5791 5791 5792 5792 5793 5793 5794 5794 5794 5793 5793 5792 5791 5790 5789 5788 5786 5785 5783 5783 5781 5780 5778 5776 5775 5773 5772 5771 5769 5769 5768 5767 5766 5764 5762 5761 5759 5760 5759 5756
5796 5795 5790 5790 5791 5791 5791 5791 5791 5792 5792 5792 5791 5791 5790 5789 5788 5787 5786 5784 5783 5781 5780 5779 5778 5776 5774 5773 5771 5770 5769 5769 5768 5767 5766 5764 5762 5760 5759 5759 5759 5758 5755
5796 5795 5791 5789 5790 5790 5790 5790 5790 5790 5790 5790 5790 5789 5789 5788 5787 5785 5784 5782 5781 5781 5779 5777 5776 5774 5772 5771 5770 5769 5768 5768 5767 5766 5766 5766 5762 5759 5758 5757 5756 5754 5753
5796 5795 5791 5788 5789 5789 5788 5788 5789 5789 5789 5789 5788 5788 5787 5786 5785 5783 5782 5781 5780 5779 5778 5776 5774 5772 5771 5769 5768 5767 5767 5766 5766 5766 5768 5767 5764 5758 5757 5755 5754 5753 5752
5796 5794 5789 5787 5787 5787 5787 5787 5788 5789 5788 5787 5787 5786 5785 5784 5783 5781 5780 5779 5778 5777 5776 5774 5772 5771 5769 5768 5766 5766 5765 5764 5765 5767 5768 5766 5763 5757 5755 5754 5753 5752 5750
5795 5793 5789 5787 5787 5786 5786 5787 5788 5787 5787 5786 5785 5784 5783 5782 5781 5780 5779 5778 5776 5775 5774 5773 5771 5769 5767 5766 5765 5764 5763 5763 5765 5768 5766 5764 5761 5756 5755 5753 5752 5751 5749
5794 5793 5788 5785 5786 5786 5785 5786 5787 5786 5785 5784 5783 5782 5781 5780 5779 5778 5777 5776 5774 5773 5772 5770 5769 5767 5765 5764 5764 5763 5762 5763 5766 5766 5765 5763 5759 5755 5753 5752 5751 5750 5749
5794 5792 5788 5784 5784 5784 5784 5785 5785 5784 5783 5782 5782 5781 5780 5778 5777 5776 5775 5774 5772 5771 5770 5768 5767 5765 5764 5764 5763 5762 5761 5762 5764 5765 5764 5762 5757 5754 5752 5751 5750 5749 5748
5795 5793 5790 5788 5785 5783 5784 5784 5783 5782 5781 5781 5780 5779 5778 5777 5776 5775 5773 5772 5771 5769 5768 5767 5766 5764 5763 5763 5762 5762 5761 5761 5765 5764 5763 5760 5755 5753 5752 5750 5749 5748 5747
5794 5793 5791 5790 5788 5788 5786 5783 5782 5781 5780 5780 5778 5778 5777 5777 5776 5774 5773 5771 5770 5768 5767 5766 5765 5764 5763 5762 5762 5761 5761 5761 5765 5765 5763 5759 5754 5752 5751 5750 5749 5748 5748
5790 5792 5792 5791 5790 5789 5787 5783 5782 5780 5779 5780 5779 5777 5778 5779 5778 5776 5773 5771 5769 5768 5767 5766 5765 5764 5763 5762 5761 5761 5761 5764 5764 5763 5761 5756 5753 5751 5750 5749 5748 5748 5748
5787 5790 5790 5790 5790 5789 5787 5784 5783 5782 5781 5780 5779 5779 5779 5778 5778 5777 5772 5770 5769 5768 5767 5766 5765 5764 5765 5765 5763 5762 5764 5764 5764 5762 5759 5755 5753 5751 5750 5749 5748 5748 5748
5789 5789 5790 5790 5788 5788 5786 5785 5783 5782 5781 5780 5779 5778 5778 5779 5778 5777 5775 5772 5770 5769 5769 5767 5767 5768 5767 5766 5766 5765 5764 5765 5763 5762 5758 5754 5752 5751 5750 5749 5748 5748 5747
5789 5789 5790 5789 5787 5785 5785 5784 5783 5783 5782 5781 5778 5778 5778 5778 5777 5776 5774 5773 5772 5771 5769 5769 5768 5767 5766 5765 5765 5765 5764 5764 5763 5761 5757 5754 5752 5751 5750 5749 5749 5748 5747
5789 5789 5789 5787 5785 5783 5782 5782 5783 5782 5782 5780 5777 5776 5777 5778 5776 5775 5773 5772 5772 5771 5770 5768 5767 5766 5765 5765 5765 5764 5763 5762 5762 5761 5757 5753 5751 5750 5749 5749 5748 5747 5746
5790 5789 5789 5787 5785 5783 5782 5781 5782 5782 5780 5780 5778 5777 5776 5776 5775 5774 5773 5771 5771 5770 5770 5768 5767 5766 5765 5764 5764 5763 5762 5762 5760 5759 5758 5755 5752 5750 5749 5749 5748 5747 5746
5791 5790 5788 5788 5787 5784 5783 5783 5783 5782 5782 5780 5778 5776 5775 5775 5773 5772 5772 5771 5770 5769 5767 5767 5766 5766 5764 5764 5763 5763 5762 5761 5760 5758 5758 5757 5755 5751 5750 5748 5747 5746 5745
5794 5791 5790 5791 5788 5785 5783 5782 5783 5782 5781 5780 5778 5776 5775 5774 5773 5772 5772 5772 5769 5769 5768 5766 5766 5765 5764 5763 5762 5762 5762 5760 5759 5758 5758 5756 5755 5754 5750 5748 5746 5745 5744
5795 5792 5789 5789 5788 5786 5784 5782 5782 5781 5780 5780 5778 5777 5774 5773 5773 5773 5772 5770 5769 5769 5768 5768 5766 5765 5762 5761 5762 5761 5761 5760 5760 5759 5758 5757 5755 5753 5752 5748 5746 5744 5743
5797 5794 5792 5789 5787 5787 5785 5783 5782 5781 5781 5780 5778 5776 5774 5773 5772 5772 5772 5769 5770 5769 5767 5765 5763 5762 5762 5761 5763 5761 5761 5760 5759 5758 5758 5757 5754 5753 5752 5749 5747 5745 5742
5798 5795 5792 5790 5788 5787 5785 5784 5781 5780 5780 5779 5778 5775 5774 5773 5772 5771 5772 5769 5768 5767 5765 5765 5763 5761 5761 5762 5759 5757 5758 5760 5759 5757 5756 5756 5755 5753 5751 5748 5747 5745 5743
5799 5796 5794 5791 5790 5788 5787 5785 5783 5782 5781 5780 5778 5775 5774 5773 5772 5772 5769 5769 5768 5765 5763 5763 5761 5761 5761 5761 5758 5754 5751 5752 5754 5758 5756 5754 5753 5752 5750 5748 5745 5742 5742
5802 5799 5798 5794 5792 5790 5789 5787 5784 5781 5780 5779 5777 5776 5774 5773 5772 5770 5769 5769 5767 5767 5765 5762 5761 5759 5758 5760 5760 5755 5749 5746 5750 5753 5752 5751 5749 5748 5748 5746 5744 5741 5739
5806 5804 5800 5796 5793 5791 5789 5788 5785 5780 5778 5778 5778 5777 5775 5773 5772 5771 5769 5768 5767 5767 5764 5763 5763 5761 5758 5757 5757 5757 5755 5752 5746 5744 5748 5750 5748 5746 5745 5745 5743 5739 5737
5810 5807 5803 5798 5793 5791 5790 5787 5784 5783 5781 5780 5779 5776 5774 5773 5772 5770 5769 5767 5765 5765 5763 5762 5760 5760 5759 5757 5756 5755 5753 5751 5750 5744 5741 5743 5744 5745 5744 5742 5740 5738 5736
5813 5809 5804 5798 5794 5792 5790 5788 5785 5783 5781 5778 5776 5775 5775 5774 5772 5770 5768 5766 5765 5764 5761 5760 5759 5758 5757 5755 5755 5755 5752 5750 5748 5745 5741 5739 5739 5741 5741 5740 5738 5736 5734